�������l�o���
Date,Time,MP-1(��Sv/h),MP-2(��Sv/h),MP-3(��Sv/h),MP-4(��Sv/h),MP-5(��Sv/h),MP-6(��Sv/h),MP-7(��Sv/h),MP-8(��Sv/h),����,����(m/s),���J
2022/07/10,00:00,0.563,0.815,0.524,0.987,0.699,0.336,0.581,0.551,��,3.0,��
2022/07/10,00:10,0.565,0.813,0.524,0.989,0.700,0.336,0.581,0.550,��,3.7,��
2022/07/10,00:20,0.563,0.813,0.525,0.989,0.700,0.336,0.581,0.551,��,4.4,��
2022/07/10,00:30,0.563,0.815,0.524,0.990,0.699,0.336,0.579,0.552,��,4.8,��
2022/07/10,00:40,0.562,0.817,0.525,0.990,0.699,0.336,0.581,0.552,��,6.1,��
2022/07/10,00:50,0.563,0.815,0.523,0.991,0.700,0.336,0.581,0.552,��,6.5,��
2022/07/10,01:00,0.563,0.818,0.524,0.990,0.701,0.337,0.581,0.553,��,7.2,��
2022/07/10,01:10,0.563,0.817,0.525,0.992,0.700,0.338,0.581,0.552,��,6.6,��
2022/07/10,01:20,0.562,0.818,0.526,0.991,0.701,0.337,0.583,0.551,��,6.1,��
2022/07/10,01:30,0.562,0.818,0.525,0.992,0.701,0.338,0.582,0.553,��,6.4,��
2022/07/10,01:40,0.562,0.821,0.524,0.991,0.700,0.339,0.583,0.552,��,6.3,��
2022/07/10,01:50,0.564,0.818,0.525,0.990,0.702,0.338,0.583,0.551,��,8.0,��
2022/07/10,02:00,0.563,0.819,0.523,0.991,0.701,0.337,0.582,0.551,��,8.0,��
2022/07/10,02:10,0.563,0.819,0.525,0.992,0.700,0.338,0.584,0.553,��,7.8,��
2022/07/10,02:20,0.564,0.818,0.525,0.988,0.701,0.337,0.582,0.552,��,8.5,��
2022/07/10,02:30,0.563,0.819,0.524,0.991,0.701,0.339,0.582,0.553,��,6.1,��
2022/07/10,02:40,0.562,0.820,0.525,0.991,0.700,0.337,0.581,0.552,��,6.5,��
2022/07/10,02:50,0.563,0.819,0.526,0.992,0.703,0.338,0.583,0.553,��,7.1,��
2022/07/10,03:00,0.564,0.817,0.526,0.990,0.700,0.339,0.583,0.552,��,6.2,��
2022/07/10,03:10,0.565,0.817,0.525,0.990,0.702,0.338,0.582,0.551,��,6.4,��
2022/07/10,03:20,0.563,0.822,0.524,0.989,0.701,0.337,0.584,0.553,��,6.8,��
2022/07/10,03:30,0.563,0.818,0.526,0.990,0.702,0.335,0.581,0.553,��,7.8,��
2022/07/10,03:40,0.563,0.819,0.525,0.989,0.702,0.336,0.582,0.552,��,7.2,��
2022/07/10,03:50,0.564,0.818,0.526,0.988,0.702,0.337,0.584,0.553,��,6.8,��
2022/07/10,04:00,0.563,0.818,0.527,0.994,0.701,0.336,0.583,0.552,��,6.6,��
2022/07/10,04:10,0.562,0.818,0.526,0.991,0.704,0.338,0.584,0.553,��,6.9,��
2022/07/10,04:20,0.564,0.819,0.526,0.993,0.703,0.338,0.583,0.551,��,5.6,��
2022/07/10,04:30,0.564,0.819,0.525,0.992,0.702,0.339,0.584,0.552,��,4.0,��
2022/07/10,04:40,0.562,0.818,0.526,0.992,0.702,0.338,0.584,0.554,��쓌,2.9,��
2022/07/10,04:50,0.564,0.818,0.527,0.991,0.700,0.337,0.584,0.552,��,3.6,��
2022/07/10,05:00,0.565,0.820,0.525,0.992,0.701,0.338,0.582,0.553,��,3.6,��
2022/07/10,05:10,0.567,0.819,0.526,0.991,0.701,0.339,0.584,0.554,��,3.5,��
2022/07/10,05:20,0.565,0.817,0.527,0.992,0.703,0.337,0.584,0.552,��쐼,2.5,��
2022/07/10,05:30,0.564,0.818,0.525,0.989,0.702,0.338,0.582,0.553,�쐼,2.3,��
2022/07/10,05:40,0.564,0.819,0.525,0.991,0.705,0.339,0.584,0.553,�쐼,3.3,��
2022/07/10,05:50,0.565,0.818,0.527,0.990,0.704,0.339,0.584,0.553,�쐼,3.7,��
2022/07/10,06:00,0.565,0.823,0.527,0.993,0.702,0.339,0.584,0.551,��쐼,4.5,��
2022/07/10,06:10,0.565,0.820,0.528,0.993,0.703,0.338,0.584,0.553,�쐼,4.8,��
2022/07/10,06:20,0.567,0.819,0.526,0.990,0.704,0.338,0.584,0.553,�쐼,4.6,��
2022/07/10,06:30,0.568,0.822,0.526,0.993,0.702,0.340,0.585,0.553,��쐼,4.4,��
2022/07/10,06:40,0.566,0.822,0.526,0.993,0.703,0.339,0.583,0.554,��쐼,3.6,��
2022/07/10,06:50,0.566,0.820,0.527,0.993,0.702,0.338,0.584,0.553,��,2.3,��
2022/07/10,07:00,0.564,0.820,0.526,0.991,0.706,0.338,0.583,0.553,��쓌,2.0,��
2022/07/10,07:10,0.565,0.822,0.527,0.993,0.704,0.338,0.582,0.552,��쐼,3.3,��
2022/07/10,07:20,0.567,0.818,0.528,0.993,0.703,0.338,0.581,0.552,��쐼,3.9,��
2022/07/10,07:30,0.568,0.820,0.528,0.995,0.705,0.337,0.583,0.553,�쐼,4.3,��
2022/07/10,07:40,0.567,0.818,0.528,0.991,0.704,0.337,0.584,0.552,�쐼,4.5,��
2022/07/10,07:50,0.568,0.821,0.527,0.993,0.704,0.338,0.584,0.553,�쐼,5.6,��
2022/07/10,08:00,0.567,0.822,0.527,0.995,0.704,0.339,0.583,0.551,�쐼,5.9,��
2022/07/10,08:10,0.568,0.822,0.528,0.993,0.706,0.338,0.584,0.551,�쐼,5.3,��
2022/07/10,08:20,0.571,0.820,0.530,0.992,0.707,0.339,0.584,0.551,�쐼,4.5,��
2022/07/10,08:30,0.569,0.821,0.529,0.994,0.704,0.338,0.586,0.552,�쐼,4.4,��
2022/07/10,08:40,0.568,0.822,0.529,0.993,0.707,0.341,0.585,0.552,��쐼,3.7,��
2022/07/10,08:50,0.569,0.825,0.529,0.995,0.707,0.338,0.586,0.552,��쐼,4.4,��
2022/07/10,09:00,0.571,0.823,0.530,0.992,0.706,0.339,0.584,0.552,��쐼,5.0,��
2022/07/10,09:10,0.569,0.822,0.528,0.995,0.706,0.339,0.585,0.551,��,3.0,��
2022/07/10,09:20,0.572,0.823,0.529,0.995,0.704,0.339,0.584,0.553,��,3.2,��
2022/07/10,09:30,0.570,0.824,0.529,0.995,0.706,0.337,0.585,0.552,��,2.9,��
2022/07/10,09:40,0.572,0.824,0.530,0.993,0.707,0.339,0.586,0.552,��쐼,2.2,��
2022/07/10,09:50,0.569,0.825,0.530,0.994,0.709,0.340,0.586,0.552,��,3.5,��
2022/07/10,10:00,0.571,0.824,0.530,0.996,0.707,0.340,0.585,0.553,��쐼,2.6,��
2022/07/10,10:10,0.572,0.825,0.530,0.997,0.708,0.340,0.585,0.552,��,3.3,��
2022/07/10,10:20,0.572,0.825,0.530,0.995,0.707,0.341,0.585,0.552,��,3.6,��
2022/07/10,10:30,0.572,0.826,0.532,0.998,0.711,0.339,0.587,0.553,��,5.9,��
2022/07/10,10:40,0.572,0.827,0.531,0.994,0.709,0.339,0.587,0.553,��,7.0,��
2022/07/10,10:50,0.573,0.826,0.531,0.997,0.711,0.339,0.586,0.553,��,5.6,��
2022/07/10,11:00,0.572,0.827,0.533,0.995,0.712,0.340,0.588,0.552,��,7.4,��
2022/07/10,11:10,0.571,0.830,0.532,0.997,0.711,0.339,0.589,0.553,��,8.6,��
2022/07/10,11:20,0.573,0.826,0.531,0.995,0.712,0.339,0.588,0.552,��,8.0,��
2022/07/10,11:30,0.573,0.829,0.533,0.995,0.711,0.340,0.588,0.553,��,8.5,��
2022/07/10,11:40,0.573,0.829,0.532,0.995,0.713,0.340,0.587,0.553,��,7.9,��
2022/07/10,11:50,0.573,0.830,0.533,0.996,0.714,0.341,0.588,0.553,��,6.8,��
2022/07/10,12:00,0.574,0.829,0.532,0.997,0.712,0.339,0.588,0.554,��,7.3,��
2022/07/10,12:10,0.575,0.830,0.532,0.995,0.712,0.341,0.588,0.554,��,7.4,��
2022/07/10,12:20,0.574,0.830,0.534,0.997,0.714,0.340,0.588,0.555,��,8.8,��
2022/07/10,12:30,0.575,0.831,0.534,0.996,0.713,0.341,0.587,0.554,��,8.5,��
2022/07/10,12:40,0.575,0.829,0.532,0.997,0.715,0.340,0.587,0.554,��,8.1,��
2022/07/10,12:50,0.576,0.831,0.533,0.997,0.713,0.342,0.590,0.555,��,7.5,��
2022/07/10,13:00,0.574,0.834,0.535,0.998,0.715,0.341,0.588,0.554,��,7.8,��
2022/07/10,13:10,0.576,0.831,0.536,0.998,0.715,0.342,0.588,0.555,��,9.1,��
2022/07/10,13:20,0.576,0.833,0.535,0.999,0.716,0.341,0.589,0.556,��,7.5,��
2022/07/10,13:30,0.576,0.835,0.535,1.000,0.715,0.341,0.589,0.557,��,10.0,��
2022/07/10,13:40,0.577,0.834,0.535,0.998,0.714,0.341,0.591,0.555,��쓌,9.4,��
2022/07/10,13:50,0.578,0.832,0.535,1.001,0.717,0.341,0.588,0.556,��쓌,12.4,��
2022/07/10,14:00,0.576,0.834,0.535,0.999,0.715,0.341,0.588,0.555,��쓌,13.5,��
2022/07/10,14:10,0.576,0.834,0.536,1.000,0.718,0.342,0.588,0.556,��,11.4,��
2022/07/10,14:20,0.578,0.833,0.535,0.999,0.718,0.342,0.589,0.555,��,11.0,��
2022/07/10,14:30,0.575,0.834,0.535,1.000,0.719,0.341,0.590,0.554,��,9.9,��
2022/07/10,14:40,0.577,0.834,0.536,1.002,0.717,0.342,0.589,0.556,��,9.8,��
2022/07/10,14:50,0.575,0.835,0.534,1.000,0.717,0.343,0.589,0.556,��,9.4,��
2022/07/10,15:00,0.576,0.835,0.534,1.002,0.717,0.342,0.589,0.556,��,11.6,��
2022/07/10,15:10,0.577,0.835,0.535,1.002,0.719,0.342,0.588,0.556,��,11.6,��
2022/07/10,15:20,0.578,0.831,0.534,1.001,0.716,0.344,0.587,0.554,��,10.8,��
2022/07/10,15:30,0.576,0.834,0.535,1.004,0.720,0.342,0.586,0.556,��,9.7,��
2022/07/10,15:40,0.577,0.834,0.535,1.002,0.719,0.343,0.588,0.555,��,8.5,��
2022/07/10,15:50,0.578,0.834,0.534,1.001,0.719,0.341,0.588,0.555,��,8.4,��
2022/07/10,16:00,0.574,0.832,0.537,1.004,0.717,0.344,0.587,0.555,��,8.4,��
2022/07/10,16:10,0.576,0.832,0.534,1.004,0.717,0.342,0.587,0.555,��,7.4,��
2022/07/10,16:20,0.577,0.834,0.535,1.001,0.718,0.341,0.587,0.555,��,7.6,��
2022/07/10,16:30,0.575,0.833,0.536,1.000,0.717,0.340,0.588,0.554,��,5.9,��
2022/07/10,16:40,0.576,0.835,0.536,1.004,0.719,0.342,0.587,0.554,��,5.6,��
2022/07/10,16:50,0.574,0.834,0.535,1.002,0.718,0.343,0.588,0.556,��,5.3,��
2022/07/10,17:00,0.575,0.836,0.534,1.004,0.719,0.342,0.587,0.555,��,5.0,��
2022/07/10,17:10,0.578,0.838,0.536,1.004,0.718,0.343,0.589,0.555,��,4.9,��
2022/07/10,17:20,0.576,0.836,0.535,1.003,0.718,0.340,0.589,0.556,��,6.1,��
2022/07/10,17:30,0.577,0.837,0.537,1.004,0.719,0.342,0.587,0.556,��,5.1,��
2022/07/10,17:40,0.577,0.836,0.538,1.003,0.719,0.342,0.589,0.555,��,5.2,��
2022/07/10,17:50,0.576,0.837,0.537,1.005,0.719,0.342,0.590,0.555,��,6.6,��
2022/07/10,18:00,0.578,0.836,0.538,1.005,0.719,0.343,0.588,0.556,��,6.5,��
2022/07/10,18:10,0.578,0.838,0.537,1.005,0.720,0.342,0.588,0.555,��,6.9,��
2022/07/10,18:20,0.578,0.836,0.539,1.008,0.719,0.343,0.590,0.554,��,6.6,��
2022/07/10,18:30,0.577,0.837,0.536,1.006,0.719,0.342,0.589,0.557,��,6.6,��
2022/07/10,18:40,0.578,0.836,0.536,1.004,0.720,0.342,0.588,0.556,��,5.6,��
2022/07/10,18:50,0.578,0.838,0.536,1.006,0.720,0.342,0.588,0.556,��,5.9,��
2022/07/10,19:00,0.576,0.836,0.537,1.005,0.721,0.342,0.588,0.558,��,7.1,��
2022/07/10,19:10,0.577,0.836,0.536,1.006,0.720,0.343,0.589,0.559,��,6.8,��
2022/07/10,19:20,0.578,0.839,0.537,1.006,0.720,0.342,0.587,0.556,��,7.4,��
2022/07/10,19:30,0.576,0.837,0.539,1.005,0.721,0.342,0.589,0.557,��,7.3,��
2022/07/10,19:40,0.576,0.838,0.538,1.007,0.720,0.341,0.588,0.556,��,7.3,��
2022/07/10,19:50,0.575,0.837,0.538,1.005,0.720,0.342,0.588,0.556,��,7.1,��
2022/07/10,20:00,0.577,0.840,0.538,1.006,0.721,0.342,0.589,0.557,��,7.1,��
2022/07/10,20:10,0.575,0.838,0.536,1.004,0.719,0.342,0.588,0.558,��,7.1,��
2022/07/10,20:20,0.577,0.838,0.537,1.007,0.721,0.341,0.588,0.556,��,7.3,��
2022/07/10,20:30,0.576,0.838,0.536,1.006,0.720,0.342,0.589,0.557,��,7.3,��
2022/07/10,20:40,0.576,0.836,0.537,1.008,0.721,0.341,0.589,0.558,��,8.1,��
2022/07/10,20:50,0.576,0.838,0.537,1.006,0.719,0.341,0.588,0.557,��,7.4,��
2022/07/10,21:00,0.574,0.839,0.537,1.006,0.720,0.341,0.589,0.555,��,7.4,��
2022/07/10,21:10,0.576,0.839,0.538,1.009,0.719,0.340,0.588,0.556,��,6.2,��
2022/07/10,21:20,0.575,0.839,0.538,1.006,0.719,0.341,0.589,0.558,��,6.4,��
2022/07/10,21:30,0.574,0.837,0.536,1.008,0.719,0.340,0.588,0.558,��,6.6,��
2022/07/10,21:40,0.576,0.838,0.537,1.007,0.720,0.342,0.590,0.557,��,5.9,��
2022/07/10,21:50,0.576,0.838,0.535,1.007,0.719,0.341,0.590,0.558,��,5.9,��
2022/07/10,22:00,0.577,0.839,0.538,1.006,0.720,0.340,0.589,0.557,��,6.5,��
2022/07/10,22:10,0.575,0.836,0.537,1.005,0.719,0.340,0.590,0.556,��,6.1,��
2022/07/10,22:20,0.574,0.836,0.537,1.007,0.719,0.341,0.589,0.558,��,6.6,��
2022/07/10,22:30,0.574,0.837,0.536,1.005,0.719,0.341,0.589,0.557,��,7.6,��
2022/07/10,22:40,0.576,0.837,0.539,1.005,0.721,0.340,0.589,0.558,��,7.7,��
2022/07/10,22:50,0.576,0.838,0.536,1.005,0.722,0.340,0.589,0.556,��,6.9,��
2022/07/10,23:00,0.574,0.838,0.538,1.003,0.720,0.342,0.590,0.558,��,5.9,��
2022/07/10,23:10,0.575,0.836,0.536,1.008,0.718,0.340,0.590,0.557,��,6.0,��
2022/07/10,23:20,0.575,0.837,0.538,1.005,0.720,0.341,0.590,0.556,��,5.2,��
2022/07/10,23:30,0.575,0.835,0.536,1.006,0.720,0.342,0.590,0.558,��,5.7,��
2022/07/10,23:40,0.576,0.838,0.537,1.007,0.720,0.341,0.588,0.558,��쐼,5.8,��
2022/07/10,23:50,0.576,0.837,0.538,1.008,0.721,0.341,0.591,0.557,��쐼,4.6,��
